Year,Month,Day,Hour,Minute,Value (Times are PST for temperature in C)
2008,07,13,00,00,17.60
2008,07,13,00,01,17.50
2008,07,13,00,02,17.50
2008,07,13,00,03,17.50
2008,07,13,00,04,17.50
2008,07,13,00,05,17.40
2008,07,13,00,06,17.40
2008,07,13,00,07,17.40
2008,07,13,00,08,17.40
2008,07,13,00,09,17.40
2008,07,13,00,10,17.40
2008,07,13,00,11,17.40
2008,07,13,00,12,17.40
2008,07,13,00,13,17.40
2008,07,13,00,14,17.30
2008,07,13,00,15,17.30
2008,07,13,00,16,17.30
2008,07,13,00,17,17.30
2008,07,13,00,18,17.30
2008,07,13,00,19,17.20
2008,07,13,00,20,17.20
2008,07,13,00,21,17.20
2008,07,13,00,22,17.20
2008,07,13,00,23,17.20
2008,07,13,00,24,17.20
2008,07,13,00,25,17.30
2008,07,13,00,26,17.30
2008,07,13,00,27,17.30
2008,07,13,00,28,17.30
2008,07,13,00,29,17.30
2008,07,13,00,30,17.30
2008,07,13,00,31,17.30
2008,07,13,00,32,17.30
2008,07,13,00,33,17.30
2008,07,13,00,34,17.30
2008,07,13,00,35,17.30
2008,07,13,00,36,17.30
2008,07,13,00,37,17.30
2008,07,13,00,38,17.30
2008,07,13,00,39,17.30
2008,07,13,00,40,17.30
2008,07,13,00,41,17.30
2008,07,13,00,42,17.30
2008,07,13,00,43,17.30
2008,07,13,00,44,17.30
2008,07,13,00,45,17.30
2008,07,13,00,46,17.30
2008,07,13,00,47,17.30
2008,07,13,00,48,17.40
2008,07,13,00,49,17.40
2008,07,13,00,50,17.40
2008,07,13,00,51,17.50
2008,07,13,00,52,17.50
2008,07,13,00,53,17.60
2008,07,13,00,54,17.60
2008,07,13,00,55,17.70
2008,07,13,00,56,17.70
2008,07,13,00,57,17.70
2008,07,13,00,58,17.70
2008,07,13,00,59,17.70
2008,07,13,01,00,17.70
2008,07,13,01,01,17.70
2008,07,13,01,02,17.60
2008,07,13,01,03,17.60
2008,07,13,01,04,17.60
2008,07,13,01,05,17.60
2008,07,13,01,06,17.50
2008,07,13,01,07,17.50
2008,07,13,01,08,17.40
2008,07,13,01,09,17.40
2008,07,13,01,10,17.40
2008,07,13,01,11,17.40
2008,07,13,01,12,17.40
2008,07,13,01,13,17.30
2008,07,13,01,14,17.30
2008,07,13,01,15,17.30
2008,07,13,01,16,17.30
2008,07,13,01,17,17.30
2008,07,13,01,18,17.30
2008,07,13,01,19,17.30
2008,07,13,01,20,17.40
2008,07,13,01,21,17.40
2008,07,13,01,22,17.50
2008,07,13,01,23,17.60
2008,07,13,01,24,17.60
2008,07,13,01,25,17.70
2008,07,13,01,26,17.70
2008,07,13,01,27,17.70
2008,07,13,01,28,17.70
2008,07,13,01,29,17.80
2008,07,13,01,30,17.80
2008,07,13,01,31,17.80
2008,07,13,01,32,17.80
2008,07,13,01,33,17.80
2008,07,13,01,34,17.80
2008,07,13,01,35,17.80
2008,07,13,01,36,17.80
2008,07,13,01,37,17.80
2008,07,13,01,38,17.80
2008,07,13,01,39,17.80
2008,07,13,01,40,17.80
2008,07,13,01,41,17.80
2008,07,13,01,42,17.70
2008,07,13,01,43,17.70
2008,07,13,01,44,17.70
2008,07,13,01,45,17.70
2008,07,13,01,46,17.70
2008,07,13,01,47,17.70
2008,07,13,01,48,17.70
2008,07,13,01,49,17.60
2008,07,13,01,50,17.60
2008,07,13,01,51,17.60
2008,07,13,01,52,17.60
2008,07,13,01,53,17.60
2008,07,13,01,54,17.60
2008,07,13,01,55,17.60
2008,07,13,01,56,17.60
2008,07,13,01,57,17.60
2008,07,13,01,58,17.60
2008,07,13,01,59,17.60
2008,07,13,02,00,17.60
2008,07,13,02,01,17.60
2008,07,13,02,02,17.60
2008,07,13,02,03,17.50
2008,07,13,02,04,17.40
2008,07,13,02,05,17.40
2008,07,13,02,06,17.40
2008,07,13,02,07,17.40
2008,07,13,02,08,17.40
2008,07,13,02,09,17.30
2008,07,13,02,10,17.30
2008,07,13,02,11,17.30
2008,07,13,02,12,17.30
2008,07,13,02,13,17.30
2008,07,13,02,14,17.30
2008,07,13,02,15,17.30
2008,07,13,02,16,17.30
2008,07,13,02,17,17.40
2008,07,13,02,18,17.40
2008,07,13,02,19,17.40
2008,07,13,02,20,17.40
2008,07,13,02,21,17.40
2008,07,13,02,22,17.40
2008,07,13,02,23,17.40
2008,07,13,02,24,17.40
2008,07,13,02,25,17.40
2008,07,13,02,26,17.40
2008,07,13,02,27,17.30
2008,07,13,02,28,17.30
2008,07,13,02,29,17.30
2008,07,13,02,30,17.30
2008,07,13,02,31,17.20
2008,07,13,02,32,17.20
2008,07,13,02,33,17.20
2008,07,13,02,34,17.20
2008,07,13,02,35,17.10
2008,07,13,02,36,17.10
2008,07,13,02,37,17.10
2008,07,13,02,38,17.00
2008,07,13,02,39,17.00
2008,07,13,02,40,17.00
2008,07,13,02,41,17.00
2008,07,13,02,42,17.00
2008,07,13,02,43,17.00
2008,07,13,02,44,17.00
2008,07,13,02,45,16.90
2008,07,13,02,46,16.90
2008,07,13,02,47,16.90
2008,07,13,02,48,16.90
2008,07,13,02,49,16.90
2008,07,13,02,50,16.90
2008,07,13,02,51,16.90
2008,07,13,02,52,16.90
2008,07,13,02,53,16.90
2008,07,13,02,54,16.90
2008,07,13,02,55,16.90
2008,07,13,02,56,16.90
2008,07,13,02,57,16.90
2008,07,13,02,58,16.90
2008,07,13,02,59,16.90
2008,07,13,03,00,16.80
2008,07,13,03,01,16.80
2008,07,13,03,02,16.80
2008,07,13,03,03,16.80
2008,07,13,03,04,16.70
2008,07,13,03,05,16.70
2008,07,13,03,06,16.70
2008,07,13,03,07,16.70
2008,07,13,03,08,16.70
2008,07,13,03,09,16.60
2008,07,13,03,10,16.60
2008,07,13,03,11,16.60
2008,07,13,03,12,16.60
2008,07,13,03,13,16.60
2008,07,13,03,14,16.50
2008,07,13,03,15,16.50
2008,07,13,03,16,16.40
2008,07,13,03,17,16.40
2008,07,13,03,18,16.40
2008,07,13,03,19,16.40
2008,07,13,03,20,16.40
2008,07,13,03,21,16.30
2008,07,13,03,22,16.30
2008,07,13,03,23,16.30
2008,07,13,03,24,16.30
2008,07,13,03,25,16.30
2008,07,13,03,26,16.30
2008,07,13,03,27,16.30
2008,07,13,03,28,16.30
2008,07,13,03,29,16.30
2008,07,13,03,30,16.30
2008,07,13,03,31,16.30
2008,07,13,03,32,16.30
2008,07,13,03,33,16.30
2008,07,13,03,34,16.30
2008,07,13,03,35,16.30
2008,07,13,03,36,16.30
2008,07,13,03,37,16.30
2008,07,13,03,38,16.20
2008,07,13,03,39,16.20
2008,07,13,03,40,16.20
2008,07,13,03,41,16.20
2008,07,13,03,42,16.20
2008,07,13,03,43,16.20
2008,07,13,03,44,16.10
2008,07,13,03,45,16.10
2008,07,13,03,46,16.10
2008,07,13,03,47,16.10
2008,07,13,03,48,16.00
2008,07,13,03,49,16.00
2008,07,13,03,50,16.00
2008,07,13,03,51,15.90
2008,07,13,03,52,15.90
2008,07,13,03,53,15.90
2008,07,13,03,54,15.80
2008,07,13,03,55,15.80
2008,07,13,03,56,15.80
2008,07,13,03,57,15.80
2008,07,13,03,58,15.80
2008,07,13,03,59,15.70
2008,07,13,04,00,15.70
2008,07,13,04,01,15.70
2008,07,13,04,02,15.80
2008,07,13,04,03,15.80
2008,07,13,04,04,15.80
2008,07,13,04,05,15.90
2008,07,13,04,06,15.90
2008,07,13,04,07,15.90
2008,07,13,04,08,15.90
2008,07,13,04,09,15.90
2008,07,13,04,10,16.00
2008,07,13,04,11,16.00
2008,07,13,04,12,15.90
2008,07,13,04,13,15.90
2008,07,13,04,14,15.90
2008,07,13,04,15,15.80
2008,07,13,04,16,15.80
2008,07,13,04,17,15.80
2008,07,13,04,18,15.80
2008,07,13,04,19,15.80
2008,07,13,04,20,15.80
2008,07,13,04,21,15.80
2008,07,13,04,22,15.80
2008,07,13,04,23,15.80
2008,07,13,04,24,15.80
2008,07,13,04,25,15.80
2008,07,13,04,26,15.90
2008,07,13,04,27,15.80
2008,07,13,04,28,15.80
2008,07,13,04,29,15.80
2008,07,13,04,30,15.80
2008,07,13,04,31,15.80
2008,07,13,04,32,15.80
2008,07,13,04,33,15.80
2008,07,13,04,34,15.80
2008,07,13,04,35,15.70
2008,07,13,04,36,15.70
2008,07,13,04,37,15.70
2008,07,13,04,38,15.70
2008,07,13,04,39,15.60
2008,07,13,04,40,15.60
2008,07,13,04,41,15.60
2008,07,13,04,42,15.60
2008,07,13,04,43,15.60
2008,07,13,04,44,15.60
2008,07,13,04,45,15.50
2008,07,13,04,46,15.50
2008,07,13,04,47,15.50
2008,07,13,04,48,15.50
2008,07,13,04,49,15.40
2008,07,13,04,50,15.40
2008,07,13,04,51,15.40
2008,07,13,04,52,15.40
2008,07,13,04,53,15.40
2008,07,13,04,54,15.40
2008,07,13,04,55,15.50
2008,07,13,04,56,15.50
2008,07,13,04,57,15.60
2008,07,13,04,58,15.60
2008,07,13,04,59,15.70
2008,07,13,05,00,15.80
2008,07,13,05,01,15.80
2008,07,13,05,02,15.90
2008,07,13,05,03,15.90
2008,07,13,05,04,15.90
2008,07,13,05,05,15.90
2008,07,13,05,06,16.00
2008,07,13,05,07,16.00
2008,07,13,05,08,16.00
2008,07,13,05,09,16.00
2008,07,13,05,10,16.00
2008,07,13,05,11,16.00
2008,07,13,05,12,16.00
2008,07,13,05,13,16.00
2008,07,13,05,14,16.00
2008,07,13,05,15,16.00
2008,07,13,05,16,16.00
2008,07,13,05,17,16.00
2008,07,13,05,18,16.10
2008,07,13,05,19,16.10
2008,07,13,05,20,16.10
2008,07,13,05,21,16.00
2008,07,13,05,22,16.00
2008,07,13,05,23,16.00
2008,07,13,05,24,15.90
2008,07,13,05,25,15.90
2008,07,13,05,26,15.90
2008,07,13,05,27,15.90
2008,07,13,05,28,15.90
2008,07,13,05,29,15.90
2008,07,13,05,30,15.90
2008,07,13,05,31,15.90
2008,07,13,05,32,15.90
2008,07,13,05,33,15.90
2008,07,13,05,34,15.90
2008,07,13,05,35,15.90
2008,07,13,05,36,15.90
2008,07,13,05,37,15.90
2008,07,13,05,38,15.90
2008,07,13,05,39,15.90
2008,07,13,05,40,15.90
2008,07,13,05,41,15.90
2008,07,13,05,42,15.90
2008,07,13,05,43,15.90
2008,07,13,05,44,15.90
2008,07,13,05,45,15.90
2008,07,13,05,46,15.90
2008,07,13,05,47,15.90
2008,07,13,05,48,15.90
2008,07,13,05,49,15.90
2008,07,13,05,50,15.90
2008,07,13,05,51,15.90
2008,07,13,05,52,15.90
2008,07,13,05,53,15.90
2008,07,13,05,54,15.90
2008,07,13,05,55,15.90
2008,07,13,05,56,15.90
2008,07,13,05,57,16.00
2008,07,13,05,58,16.00
2008,07,13,05,59,16.00
2008,07,13,06,00,16.10
2008,07,13,06,01,16.10
2008,07,13,06,02,16.10
2008,07,13,06,03,16.10
2008,07,13,06,04,16.20
2008,07,13,06,05,16.20
2008,07,13,06,06,16.20
2008,07,13,06,07,16.20
2008,07,13,06,08,16.20
2008,07,13,06,09,16.20
2008,07,13,06,10,16.20
2008,07,13,06,11,16.20
2008,07,13,06,12,16.30
2008,07,13,06,13,16.30
2008,07,13,06,14,16.30
2008,07,13,06,15,16.30
2008,07,13,06,16,16.30
2008,07,13,06,17,16.30
2008,07,13,06,18,16.30
2008,07,13,06,19,16.30
2008,07,13,06,20,16.30
2008,07,13,06,21,16.30
2008,07,13,06,22,16.30
2008,07,13,06,23,16.40
2008,07,13,06,24,16.40
2008,07,13,06,25,16.40
2008,07,13,06,26,16.40
2008,07,13,06,27,16.40
2008,07,13,06,28,16.40
2008,07,13,06,29,16.50
2008,07,13,06,30,16.50
2008,07,13,06,31,16.50
2008,07,13,06,32,16.50
2008,07,13,06,33,16.60
2008,07,13,06,34,16.60
2008,07,13,06,35,16.60
2008,07,13,06,36,16.60
2008,07,13,06,37,16.60
2008,07,13,06,38,16.60
2008,07,13,06,39,16.60
2008,07,13,06,40,16.60
2008,07,13,06,41,16.60
2008,07,13,06,42,16.60
2008,07,13,06,43,16.70
2008,07,13,06,44,16.70
2008,07,13,06,45,16.70
2008,07,13,06,46,16.70
2008,07,13,06,47,16.70
2008,07,13,06,48,16.70
2008,07,13,06,49,16.70
2008,07,13,06,50,16.70
2008,07,13,06,51,16.70
2008,07,13,06,52,16.70
2008,07,13,06,53,16.70
2008,07,13,06,54,16.70
2008,07,13,06,55,16.70
2008,07,13,06,56,16.70
2008,07,13,06,57,16.70
2008,07,13,06,58,16.70
2008,07,13,06,59,16.70
2008,07,13,07,00,16.70
2008,07,13,07,01,16.80
2008,07,13,07,02,16.80
2008,07,13,07,03,16.80
2008,07,13,07,04,16.80
2008,07,13,07,05,16.80
2008,07,13,07,06,16.80
2008,07,13,07,07,16.80
2008,07,13,07,08,16.80
2008,07,13,07,09,16.80
2008,07,13,07,10,16.80
2008,07,13,07,11,16.80
2008,07,13,07,12,16.80
2008,07,13,07,13,16.80
2008,07,13,07,14,16.80
2008,07,13,07,15,16.80
2008,07,13,07,16,16.80
2008,07,13,07,17,16.80
2008,07,13,07,18,16.90
2008,07,13,07,19,16.90
2008,07,13,07,20,16.90
2008,07,13,07,21,16.90
2008,07,13,07,22,17.00
2008,07,13,07,23,17.10
2008,07,13,07,24,17.20
2008,07,13,07,25,17.20
2008,07,13,07,26,17.30
2008,07,13,07,27,17.40
2008,07,13,07,28,17.50
2008,07,13,07,29,17.60
2008,07,13,07,30,17.70
2008,07,13,07,31,17.80
2008,07,13,07,32,17.80
2008,07,13,07,33,17.90
2008,07,13,07,34,18.00
2008,07,13,07,35,18.00
2008,07,13,07,36,18.10
2008,07,13,07,37,18.10
2008,07,13,07,38,18.10
2008,07,13,07,39,18.10
2008,07,13,07,40,18.20
2008,07,13,07,41,18.20
2008,07,13,07,42,18.20
2008,07,13,07,43,18.20
2008,07,13,07,44,18.20
2008,07,13,07,45,18.20
2008,07,13,07,46,18.30
2008,07,13,07,47,18.30
2008,07,13,07,48,18.30
2008,07,13,07,49,18.30
2008,07,13,07,50,18.30
2008,07,13,07,51,18.30
2008,07,13,07,52,18.40
2008,07,13,07,53,18.40
2008,07,13,07,54,18.40
2008,07,13,07,55,18.50
2008,07,13,07,56,18.50
2008,07,13,07,57,18.60
2008,07,13,07,58,18.60
2008,07,13,07,59,18.60
2008,07,13,08,00,18.60
2008,07,13,08,01,18.60
2008,07,13,08,02,18.60
2008,07,13,08,03,18.60
2008,07,13,08,04,18.70
2008,07,13,08,05,18.70
2008,07,13,08,06,18.60
2008,07,13,08,07,18.60
2008,07,13,08,08,18.60
2008,07,13,08,09,18.60
2008,07,13,08,10,18.70
2008,07,13,08,11,18.70
2008,07,13,08,12,18.70
2008,07,13,08,13,18.70
2008,07,13,08,14,18.70
2008,07,13,08,15,18.70
2008,07,13,08,16,18.70
2008,07,13,08,17,18.80
2008,07,13,08,18,18.80
2008,07,13,08,19,18.80
2008,07,13,08,20,18.80
2008,07,13,08,21,18.80
2008,07,13,08,22,18.90
2008,07,13,08,23,18.90
2008,07,13,08,24,18.90
2008,07,13,08,25,18.90
2008,07,13,08,26,18.90
2008,07,13,08,27,18.90
2008,07,13,08,28,19.00
2008,07,13,08,29,19.00
2008,07,13,08,30,19.10
2008,07,13,08,31,19.10
2008,07,13,08,32,19.20
2008,07,13,08,33,19.20
2008,07,13,08,34,19.30
2008,07,13,08,35,19.40
2008,07,13,08,36,19.40
2008,07,13,08,37,19.50
2008,07,13,08,38,19.60
2008,07,13,08,39,19.60
2008,07,13,08,40,19.70
2008,07,13,08,41,19.70
2008,07,13,08,42,19.80
2008,07,13,08,43,19.80
2008,07,13,08,44,19.80
2008,07,13,08,45,19.80
2008,07,13,08,46,19.80
2008,07,13,08,47,19.80
2008,07,13,08,48,20.00
2008,07,13,08,49,20.30
2008,07,13,08,50,20.40
2008,07,13,08,51,20.50
2008,07,13,08,52,20.60
2008,07,13,08,53,20.60
2008,07,13,08,54,20.60
2008,07,13,08,55,20.90
2008,07,13,08,56,21.00
2008,07,13,08,57,21.10
2008,07,13,08,58,21.10
2008,07,13,08,59,21.10
2008,07,13,09,00,21.10
2008,07,13,09,01,21.10
2008,07,13,09,02,21.10
2008,07,13,09,03,21.10
2008,07,13,09,04,21.10
2008,07,13,09,05,21.10
2008,07,13,09,06,21.20
2008,07,13,09,07,21.20
2008,07,13,09,08,21.20
2008,07,13,09,09,21.20
2008,07,13,09,10,21.30
2008,07,13,09,11,21.30
2008,07,13,09,12,21.30
2008,07,13,09,13,21.30
2008,07,13,09,14,21.40
2008,07,13,09,15,21.40
2008,07,13,09,16,21.50
2008,07,13,09,17,21.60
2008,07,13,09,18,21.70
2008,07,13,09,19,21.70
2008,07,13,09,20,21.80
2008,07,13,09,21,21.80
2008,07,13,09,22,21.90
2008,07,13,09,23,22.00
2008,07,13,09,24,22.00
2008,07,13,09,25,22.10
2008,07,13,09,26,22.20
2008,07,13,09,27,22.20
2008,07,13,09,28,22.30
2008,07,13,09,29,22.40
2008,07,13,09,30,22.40
2008,07,13,09,31,22.50
2008,07,13,09,32,22.50
2008,07,13,09,33,22.50
2008,07,13,09,34,22.60
2008,07,13,09,35,22.70
2008,07,13,09,36,22.70
2008,07,13,09,37,22.80
2008,07,13,09,38,22.80
2008,07,13,09,39,22.80
2008,07,13,09,40,22.80
2008,07,13,09,41,23.00
2008,07,13,09,42,23.10
2008,07,13,09,43,23.10
2008,07,13,09,44,23.00
2008,07,13,09,45,22.90
2008,07,13,09,46,22.90
2008,07,13,09,47,23.00
2008,07,13,09,48,23.00
2008,07,13,09,49,23.00
2008,07,13,09,50,23.10
2008,07,13,09,51,23.10
2008,07,13,09,52,23.00
2008,07,13,09,53,22.90
2008,07,13,09,54,22.90
2008,07,13,09,55,22.90
2008,07,13,09,56,22.90
2008,07,13,09,57,22.90
2008,07,13,09,58,23.00
2008,07,13,09,59,23.00
2008,07,13,10,00,23.10
2008,07,13,10,01,23.10
2008,07,13,10,02,23.00
2008,07,13,10,03,23.00
2008,07,13,10,04,23.00
2008,07,13,10,05,23.00
2008,07,13,10,06,22.90
2008,07,13,10,07,22.80
2008,07,13,10,08,22.80
2008,07,13,10,09,22.80
2008,07,13,10,10,22.50
2008,07,13,10,11,22.50
2008,07,13,10,12,22.40
2008,07,13,10,13,22.30
2008,07,13,10,14,22.20
2008,07,13,10,15,22.10
2008,07,13,10,16,21.90
2008,07,13,10,17,21.90
2008,07,13,10,18,21.90
2008,07,13,10,19,21.90
2008,07,13,10,20,21.80
2008,07,13,10,21,21.90
2008,07,13,10,22,21.90
2008,07,13,10,23,22.00
2008,07,13,10,24,22.00
2008,07,13,10,25,22.00
2008,07,13,10,26,22.10
2008,07,13,10,27,22.10
2008,07,13,10,28,22.20
2008,07,13,10,29,22.20
2008,07,13,10,30,22.20
2008,07,13,10,31,22.10
2008,07,13,10,32,22.00
2008,07,13,10,33,21.90
2008,07,13,10,34,21.80
2008,07,13,10,35,21.60
2008,07,13,10,36,21.70
2008,07,13,10,37,21.70
2008,07,13,10,38,21.80
2008,07,13,10,39,21.80
2008,07,13,10,40,21.80
2008,07,13,10,41,21.80
2008,07,13,10,42,21.80
2008,07,13,10,43,21.80
2008,07,13,10,44,21.80
2008,07,13,10,45,21.80
2008,07,13,10,46,21.70
2008,07,13,10,47,21.60
2008,07,13,10,48,21.40
2008,07,13,10,49,21.30
2008,07,13,10,50,21.20
2008,07,13,10,51,21.20
2008,07,13,10,52,21.20
2008,07,13,10,53,21.20
2008,07,13,10,54,21.20
2008,07,13,10,55,21.10
2008,07,13,10,56,21.00
2008,07,13,10,57,21.00
2008,07,13,10,58,21.00
2008,07,13,10,59,21.10
2008,07,13,11,00,21.10
2008,07,13,11,01,21.20
2008,07,13,11,02,21.20
2008,07,13,11,03,21.30
2008,07,13,11,04,21.30
2008,07,13,11,05,21.40
2008,07,13,11,06,21.50
2008,07,13,11,07,21.60
2008,07,13,11,08,21.80
2008,07,13,11,09,21.90
2008,07,13,11,10,22.00
2008,07,13,11,11,22.10
2008,07,13,11,12,22.20
2008,07,13,11,13,22.20
2008,07,13,11,14,22.10
2008,07,13,11,15,22.00
2008,07,13,11,16,21.90
2008,07,13,11,17,21.90
2008,07,13,11,18,21.80
2008,07,13,11,19,21.90
2008,07,13,11,20,21.90
2008,07,13,11,21,22.10
2008,07,13,11,22,22.20
2008,07,13,11,23,22.30
2008,07,13,11,24,22.40
2008,07,13,11,25,22.40
2008,07,13,11,26,22.30
2008,07,13,11,27,22.30
2008,07,13,11,28,22.20
2008,07,13,11,29,22.20
2008,07,13,11,30,22.10
2008,07,13,11,31,22.20
2008,07,13,11,32,22.20
2008,07,13,11,33,22.30
2008,07,13,11,34,22.20
2008,07,13,11,35,22.20
2008,07,13,11,36,22.10
2008,07,13,11,37,22.20
2008,07,13,11,38,22.20
2008,07,13,11,39,22.30
2008,07,13,11,40,22.30
2008,07,13,11,41,22.30
2008,07,13,11,42,22.30
2008,07,13,11,43,22.30
2008,07,13,11,44,22.20
2008,07,13,11,45,22.10
2008,07,13,11,46,22.00
2008,07,13,11,47,21.80
2008,07,13,11,48,21.80
2008,07,13,11,49,21.80
2008,07,13,11,50,21.80
2008,07,13,11,51,21.80
2008,07,13,11,52,21.80
2008,07,13,11,53,21.70
2008,07,13,11,54,21.80
2008,07,13,11,55,21.80
2008,07,13,11,56,21.70
2008,07,13,11,57,21.70
2008,07,13,11,58,21.70
2008,07,13,11,59,21.60
2008,07,13,12,00,21.60
2008,07,13,12,01,21.50
2008,07,13,12,02,21.50
2008,07,13,12,03,21.60
2008,07,13,12,04,21.70
2008,07,13,12,05,21.80
2008,07,13,12,06,21.90
2008,07,13,12,07,22.00
2008,07,13,12,08,22.10
2008,07,13,12,09,22.20
2008,07,13,12,10,22.30
2008,07,13,12,11,22.30
2008,07,13,12,12,22.40
2008,07,13,12,13,22.40
2008,07,13,12,14,22.40
2008,07,13,12,15,22.50
2008,07,13,12,16,22.40
2008,07,13,12,17,22.40
2008,07,13,12,18,22.30
2008,07,13,12,19,22.20
2008,07,13,12,20,22.10
2008,07,13,12,21,21.90
2008,07,13,12,22,21.80
2008,07,13,12,23,21.80
2008,07,13,12,24,21.80
2008,07,13,12,25,21.80
2008,07,13,12,26,21.80
2008,07,13,12,27,21.80
2008,07,13,12,28,21.80
2008,07,13,12,29,21.80
2008,07,13,12,30,21.80
2008,07,13,12,31,21.70
2008,07,13,12,32,21.70
2008,07,13,12,33,21.60
2008,07,13,12,34,21.60
2008,07,13,12,35,21.60
2008,07,13,12,36,21.60
2008,07,13,12,37,21.70
2008,07,13,12,38,21.70
2008,07,13,12,39,21.80
2008,07,13,12,40,21.80
2008,07,13,12,41,21.90
2008,07,13,12,42,21.90
2008,07,13,12,43,22.00
2008,07,13,12,44,22.10
2008,07,13,12,45,22.10
2008,07,13,12,46,22.20
2008,07,13,12,47,22.30
2008,07,13,12,48,22.40
2008,07,13,12,49,22.40
2008,07,13,12,50,22.50
2008,07,13,12,51,22.60
2008,07,13,12,52,22.60
2008,07,13,12,53,22.60
2008,07,13,12,54,22.60
2008,07,13,12,55,22.70
2008,07,13,12,56,22.70
2008,07,13,12,57,22.70
2008,07,13,12,58,22.70
2008,07,13,12,59,22.70
2008,07,13,13,00,22.70
2008,07,13,13,01,22.70
2008,07,13,13,02,22.70
2008,07,13,13,03,22.60
2008,07,13,13,04,22.50
2008,07,13,13,05,22.50
2008,07,13,13,06,22.50
2008,07,13,13,07,22.60
2008,07,13,13,08,22.80
2008,07,13,13,09,22.90
2008,07,13,13,10,22.90
2008,07,13,13,11,22.90
2008,07,13,13,12,22.90
2008,07,13,13,13,22.90
2008,07,13,13,14,22.90
2008,07,13,13,15,22.90
2008,07,13,13,16,22.80
2008,07,13,13,17,22.80
2008,07,13,13,18,22.80
2008,07,13,13,19,22.80
2008,07,13,13,20,22.70
2008,07,13,13,21,22.60
2008,07,13,13,22,22.50
2008,07,13,13,23,22.40
2008,07,13,13,24,22.30
2008,07,13,13,25,22.30
2008,07,13,13,26,22.30
2008,07,13,13,27,22.40
2008,07,13,13,28,22.40
2008,07,13,13,29,22.50
2008,07,13,13,30,22.60
2008,07,13,13,31,22.70
2008,07,13,13,32,22.80
2008,07,13,13,33,22.80
2008,07,13,13,34,22.90
2008,07,13,13,35,22.90
2008,07,13,13,36,22.90
2008,07,13,13,37,22.90
2008,07,13,13,38,22.90
2008,07,13,13,39,22.90
2008,07,13,13,40,22.90
2008,07,13,13,41,22.90
2008,07,13,13,42,22.90
2008,07,13,13,43,22.90
2008,07,13,13,44,22.90
2008,07,13,13,45,22.90
2008,07,13,13,46,22.90
2008,07,13,13,47,22.90
2008,07,13,13,48,22.90
2008,07,13,13,49,22.80
2008,07,13,13,50,22.80
2008,07,13,13,51,22.80
2008,07,13,13,52,22.80
2008,07,13,13,53,22.80
2008,07,13,13,54,22.90
2008,07,13,13,55,22.90
2008,07,13,13,56,23.00
2008,07,13,13,57,23.10
2008,07,13,13,58,23.10
2008,07,13,13,59,23.10
2008,07,13,14,00,23.10
2008,07,13,14,01,23.20
2008,07,13,14,02,23.20
2008,07,13,14,03,23.10
2008,07,13,14,04,23.10
2008,07,13,14,05,23.10
2008,07,13,14,06,23.10
2008,07,13,14,07,23.00
2008,07,13,14,08,22.90
2008,07,13,14,09,22.80
2008,07,13,14,10,22.70
2008,07,13,14,11,22.70
2008,07,13,14,12,22.70
2008,07,13,14,13,22.60
2008,07,13,14,14,22.50
2008,07,13,14,15,22.50
2008,07,13,14,16,22.40
2008,07,13,14,17,22.30
2008,07,13,14,18,22.40
2008,07,13,14,19,22.40
2008,07,13,14,20,22.50
2008,07,13,14,21,22.70
2008,07,13,14,22,22.80
2008,07,13,14,23,22.80
2008,07,13,14,24,22.90
2008,07,13,14,25,22.90
2008,07,13,14,26,22.90
2008,07,13,14,27,23.00
2008,07,13,14,28,23.00
2008,07,13,14,29,23.00
2008,07,13,14,30,23.10
2008,07,13,14,31,23.20
2008,07,13,14,32,23.20
2008,07,13,14,33,23.10
2008,07,13,14,34,23.00
2008,07,13,14,35,23.00
2008,07,13,14,36,23.00
2008,07,13,14,37,23.10
2008,07,13,14,38,23.20
2008,07,13,14,39,23.30
2008,07,13,14,40,23.40
2008,07,13,14,41,23.60
2008,07,13,14,42,23.70
2008,07,13,14,43,23.60
2008,07,13,14,44,23.60
2008,07,13,14,45,23.70
2008,07,13,14,46,23.80
2008,07,13,14,47,23.90
2008,07,13,14,48,24.00
2008,07,13,14,49,24.00
2008,07,13,14,50,24.00
2008,07,13,14,51,24.10
2008,07,13,14,52,24.20
2008,07,13,14,53,24.40
2008,07,13,14,54,24.60
2008,07,13,14,55,24.70
2008,07,13,14,56,24.70
2008,07,13,14,57,25.00
2008,07,13,14,58,25.10
2008,07,13,14,59,25.10
2008,07,13,15,00,25.10
2008,07,13,15,01,25.10
2008,07,13,15,02,25.20
2008,07,13,15,03,25.20
2008,07,13,15,04,25.30
2008,07,13,15,05,25.20
2008,07,13,15,06,25.20
2008,07,13,15,07,25.20
2008,07,13,15,08,25.20
2008,07,13,15,09,25.00
2008,07,13,15,10,24.90
2008,07,13,15,11,24.90
2008,07,13,15,12,24.90
2008,07,13,15,13,25.00
2008,07,13,15,14,25.00
2008,07,13,15,15,25.00
2008,07,13,15,16,25.00
2008,07,13,15,17,25.00
2008,07,13,15,18,25.10
2008,07,13,15,19,25.20
2008,07,13,15,20,25.30
2008,07,13,15,21,25.30
2008,07,13,15,22,25.30
2008,07,13,15,23,25.30
2008,07,13,15,24,25.30
2008,07,13,15,25,25.30
2008,07,13,15,26,25.40
2008,07,13,15,27,25.40
2008,07,13,15,28,25.60
2008,07,13,15,29,25.80
2008,07,13,15,30,26.00
2008,07,13,15,31,26.10
2008,07,13,15,32,26.30
2008,07,13,15,33,26.50
2008,07,13,15,34,26.80
2008,07,13,15,35,27.00
2008,07,13,15,36,27.20
2008,07,13,15,37,27.30
2008,07,13,15,38,27.40
2008,07,13,15,39,27.50
2008,07,13,15,40,27.60
2008,07,13,15,41,27.80
2008,07,13,15,42,27.80
2008,07,13,15,43,27.90
2008,07,13,15,44,27.90
2008,07,13,15,45,27.90
2008,07,13,15,46,27.90
2008,07,13,15,47,27.90
2008,07,13,15,48,27.80
2008,07,13,15,49,27.70
2008,07,13,15,50,27.60
2008,07,13,15,51,27.60
2008,07,13,15,52,27.70
2008,07,13,15,53,27.70
2008,07,13,15,54,27.70
2008,07,13,15,55,27.70
2008,07,13,15,56,27.70
2008,07,13,15,57,27.60
2008,07,13,15,58,27.60
2008,07,13,15,59,27.60
2008,07,13,16,00,27.60
2008,07,13,16,01,27.50
2008,07,13,16,02,27.40
2008,07,13,16,03,27.40
2008,07,13,16,04,27.40
2008,07,13,16,05,27.50
2008,07,13,16,06,27.40
2008,07,13,16,07,27.40
2008,07,13,16,08,27.40
2008,07,13,16,09,27.40
2008,07,13,16,10,27.30
2008,07,13,16,11,27.30
2008,07,13,16,12,27.30
2008,07,13,16,13,27.30
2008,07,13,16,14,27.30
2008,07,13,16,15,27.30
2008,07,13,16,16,27.20
2008,07,13,16,17,27.10
2008,07,13,16,18,27.00
2008,07,13,16,19,27.00
2008,07,13,16,20,27.00
2008,07,13,16,21,27.10
2008,07,13,16,22,27.20
2008,07,13,16,23,27.20
2008,07,13,16,24,27.30
2008,07,13,16,25,27.30
2008,07,13,16,26,27.30
2008,07,13,16,27,27.30
2008,07,13,16,28,27.20
2008,07,13,16,29,27.10
2008,07,13,16,30,27.10
2008,07,13,16,31,27.10
2008,07,13,16,32,27.00
2008,07,13,16,33,27.00
2008,07,13,16,34,26.90
2008,07,13,16,35,26.90
2008,07,13,16,36,26.90
2008,07,13,16,37,26.80
2008,07,13,16,38,26.80
2008,07,13,16,39,26.70
2008,07,13,16,40,26.70
2008,07,13,16,41,26.70
2008,07,13,16,42,26.70
2008,07,13,16,43,26.70
2008,07,13,16,44,26.60
2008,07,13,16,45,26.50
2008,07,13,16,46,26.50
2008,07,13,16,47,26.50
2008,07,13,16,48,26.50
2008,07,13,16,49,26.50
2008,07,13,16,50,26.50
2008,07,13,16,51,26.40
2008,07,13,16,52,26.50
2008,07,13,16,53,26.50
2008,07,13,16,54,26.50
2008,07,13,16,55,26.60
2008,07,13,16,56,26.50
2008,07,13,16,57,26.40
2008,07,13,16,58,26.40
2008,07,13,16,59,26.40
2008,07,13,17,00,26.50
2008,07,13,17,01,26.60
2008,07,13,17,02,26.60
2008,07,13,17,03,26.60
2008,07,13,17,04,26.60
2008,07,13,17,05,26.50
2008,07,13,17,06,26.50
2008,07,13,17,07,26.50
2008,07,13,17,08,26.40
2008,07,13,17,09,26.30
2008,07,13,17,10,26.30
2008,07,13,17,11,26.30
2008,07,13,17,12,26.20
2008,07,13,17,13,26.30
2008,07,13,17,14,26.30
2008,07,13,17,15,26.20
2008,07,13,17,16,26.20
2008,07,13,17,17,26.20
2008,07,13,17,18,26.10
2008,07,13,17,19,26.10